Погода в Скиптоне

Великобритания     53°57′16″N   2°01′32″W
темп.,
°C
ветер,
м/с
пор.,
м/с
влажн.,
%
обл.,
%
осадки,
мм/ч
давл.,
гПа
погр.,
м
9 мая, вс
вс901:00+10ююз61297100 5.2 993709
04:00+10ююз61497100 2.1 992751
07:00+10ююз51093100 2.6 992820
10:00+11ююз81178100 0.1 9931113
13:00+14ююз81163100 0.1 9931776
16:00+14ююз71168100 0.1 9921574
19:00+11ююз7118399 0.6 993885
22:00+8ю41092100 0.0 994307
10 мая, пн
пн1001:00+7ю3694100 0.0 994146
04:00+6ю3696100 0.0 994205
07:00+8ю5982100 0.0 994925
10:00+10ю61078100 0.1 9951292
13:00+11ю6107870 0.3 9951328
16:00+11ююз9128594 2.1 9961148
19:00+10юз6118870 3.6 9981116
22:00+5юз49910 0.1 1002257
11 мая, вт
вт1101:00+3ююз34920 0.1 100581
04:00+3ююз22940 0.0 100616
07:00+5ююв128712 0.0 100774
10:00+10юв467511 0.0 1007871
13:00+11юв5666100 0.3 10061334
16:00+9юв4790100 3.1 1006617
19:00+10юв4785100 4.3 1005660
22:00+7в2291100 1.2 100536
12 мая, ср
ср1201:00+5в239862 1.2 100553
04:00+6вюв2597100 0.0 1004193
07:00+7юв41096100 0.1 1005698
10:00+8ю4983100 0.3 10051075
13:00+11ююз8107093 0.8 10051510
16:00+12зюз57659 0.3 10061495
19:00+10з448184 0.7 1007548
22:00+6зсз1191100 0.0 100810
13 мая, чт
чт1301:00+5ссз1187100 0.0 100810
04:00+6с1181100 0.0 100811
07:00+8св128399 0.0 100885
10:00+10всв347897 0.3 1008595
13:00+11всв4678100 1.4 1008945
16:00+11в677897 1.7 1008931
19:00+10в6881100 2.1 1008773
22:00+6св4109666 0.0 1010332